Tracking 30107 objects as of 18-Jan-2025
HD Live streaming from Space Station
objects crossing your sky now

CHINASAT 4A

Track CHINASAT 4A now!
CHINASAT 4A is classified as:


NORAD ID: 60606
Int'l Code: 2024-151A
Perigee: 35,780.3 km
Apogee: 35,804.8 km
Inclination: 2.6 °
Period: 1,436.0 minutes
Semi major axis: 42163 km
RCS: Unknown
Launch date: August 22, 2024
Source: People's Republic of China (PRC)
Launch site: Wenchang Satellite Launch Center (WSC)
Your satellite tracking list
Your tracking list is empty




NASA's NSSDC Master Catalog

Two Line Element Set (TLE):
1 60606U 24151A   25017.75882719 -.00000356  00000-0  00000-0 0  9998
2 60606   2.6457 276.6766 0002905  35.6309 196.4424  1.00275982  1584
Source of the keplerian elements: AFSPC